Location: Glencliff
(36.1226°N, 86.7183°W)
Time: 23:28:24
(UTC+00:00)

Cosmos 1777 Rocket - Pass Details

Date: 25 August 2019
Orbit: 758 x 776 km, 74.0° (Epoch: 19 September)

Event Time Altitude Azimuth Distance (km) Brightness Sun altitude
Rises 00:45:05 0° 203° (SSW) 3,221 7.3 -4.6°
Reaches altitude 10° 00:47:27 10° 205° (SSW) 2,301 6.6 -5.0°
Maximum altitude 00:52:39 69° 288° (WNW) 827 4.5 -6.0°
Drops below altitude 10° 00:57:55 10° 12° (NNE) 2,326 6.6 -7.0°
Sets 01:00:20 0° 15° (NNE) 3,259 7.3 -7.5°
